Hlavní strana
METAR-TAF:

METAR-TAF

Letiště :

Plantation Airpark

Sylvania, Georgie, Spojené státy americké

zeměpisná šířka: 32-38-43N, zeměpisná délka: 081-35-47W, výška: 57 m

Aktuální stav počasí

Zpráva byla vytvořena před 15 minutami, v 07:35 UTC
Východní vítr 7 kt
Teplota 9°C
Vlhkost vzduchu 81%
Tlak 1027 hPa
Viditelnost: 16.1 km
Jasno

METAR: KJYL 080735Z AUTO 08007KT 10SM CLR 09/06 A3032 RMK AO2 T00860057

Čas: 02:50 (07:50 UTC)


TAF: chybějící

Stav a předpovědi počasí z více než 4 000 letišť (zprávy METAR a TAF).

Červené a žluté tečky na mapě představují dostupné meteorologické stanice.

Když kurzor umístíte na tečku, zobrazí se název stanice.

Pak kliknutím zobrazíte stav a předpověď počasí.

Chcete-li změnit mapu, kliknutím na zelené tlačítko se znaménkem +mapu přiblížíte, kliknutím na zelené tlačítko se znaménkem – mapu oddálíte a kliknutím na zelené šipky přejdete na sousední mapy.


METAR-TAF: